| time (UTC) | temp F | wind direction | speed MPH | gust MPH | rain 1hr in | rain 24hr in | rain mn in | humidity % | barometer mb |
| 20260508084519 | 47 | 0.0 | 0.0 | 0.00 | 0.00 | 0.00 | 90 | 1016.9 | |
| 20260508083539 | 47 | 0.0 | 0.0 | 0.00 | 0.00 | 0.00 | 88 | 1016.5 | |
| 20260508082519 | 48 | 0.0 | 0.0 | 0.00 | 0.00 | 0.00 | 88 | 1016.9 | |
| 20260508081519 | 48 | 0.0 | 0.0 | 0.00 | 0.00 | 0.00 | 87 | 1017.0 | |
| 20260508080519 | 48 | 0.0 | 0.0 | 0.00 | 0.00 | 0.00 | 86 | 1016.8 | |
| 20260508075539 | 48 | 0.0 | 0.0 | 0.00 | 0.00 | 0.00 | 87 | 1016.9 | |
| 20260508074519 | 49 | 0.0 | 0.0 | 0.00 | 0.00 | 0.00 | 85 | 1017.4 | |
| 20260508073539 | 50 | 0.0 | 0.0 | 0.00 | 0.00 | 0.00 | 84 | 1017.6 | |
| 20260508072520 | 50 | 0.0 | 0.0 | 0.00 | 0.00 | 0.00 | 81 | 1018.4 | |
| 20260508071519 | 51 | 0.0 | 0.0 | 0.00 | 0.00 | 0.00 | 77 | 1018.5 | |
| 20260508070520 | 51 | 0.0 | 0.0 | 0.00 | 0.00 | 0.00 | 75 | 1019.2 | |
| 20260508065520 | 51 | 0.0 | 1.0 | 0.00 | 0.00 | 0.00 | 74 | 1018.9 | |
| 20260508064519 | 51 | 315 | 1.0 | 5.0 | 0.00 | 0.00 | 0.00 | 73 | 1019.3 |
| 20260508063519 | 52 | 338 | 1.0 | 7.0 | 0.00 | 0.00 | 0.00 | 73 | 1018.9 |
| 20260508062519 | 52 | 315 | 1.0 | 2.0 | 0.00 | 0.00 | 0.00 | 72 | 1018.8 |
| 20260508061520 | 52 | 0.0 | 1.0 | 0.00 | 0.00 | 0.00 | 72 | 1018.7 | |
| 20260508060519 | 53 | 315 | 1.0 | 4.0 | 0.00 | 0.00 | 0.00 | 70 | 1018.3 |
| 20260508055539 | 53 | 0.0 | 1.0 | 0.00 | 0.00 | 0.00 | 68 | 1018.1 | |
| 20260508054559 | 54 | 0.0 | 0.0 | 0.00 | 0.00 | 0.00 | 67 | 1018.4 | |
| 20260508053519 | 54 | 0.0 | 2.0 | 0.00 | 0.00 | 0.00 | 65 | 1018.2 | |
| 20260508052519 | 55 | 0.0 | 1.0 | 0.00 | 0.00 | 0.00 | 63 | 1018.2 | |
| 20260508051519 | 55 | 0.0 | 2.0 | 0.00 | 0.00 | 0.00 | 62 | 1018.0 | |
| 20260508050539 | 56 | 0.0 | 2.0 | 0.00 | 0.00 | 0.00 | 61 | 1017.2 | |
| 20260508045519 | 57 | 0.0 | 1.0 | 0.00 | 0.00 | 0.00 | 59 | 1017.0 | |
| 20260508044519 | 57 | 315 | 1.0 | 4.0 | 0.00 | 0.00 | 0.00 | 56 | 1016.9 |
| 20260508043559 | 58 | 315 | 1.0 | 4.0 | 0.00 | 0.00 | 0.00 | 55 | 1015.5 |
| 20260508042519 | 58 | 0.0 | 0.0 | 0.00 | 0.00 | 0.00 | 53 | 1015.0 | |
| 20260508041519 | 58 | 0.0 | 1.0 | 0.00 | 0.00 | 0.00 | 52 | 1014.8 | |
| 20260508040519 | 59 | 0.0 | 2.0 | 0.00 | 0.00 | 0.00 | 52 | 1014.9 | |
| 20260508035519 | 59 | 315 | 1.0 | 4.0 | 0.00 | 0.00 | 0.00 | 50 | 1015.3 |
| 20260508034519 | 58 | 338 | 1.0 | 3.0 | 0.00 | 0.00 | 0.00 | 52 | 1014.8 |
| 20260508033519 | 57 | 315 | 2.0 | 4.0 | 0.00 | 0.00 | 0.00 | 55 | 1014.0 |
| 20260508032520 | 57 | 293 | 1.0 | 4.0 | 0.00 | 0.00 | 0.00 | 56 | 1013.9 |
| 20260508031559 | 57 | 315 | 3.0 | 7.0 | 0.00 | 0.00 | 0.00 | 58 | 1013.7 |
| 20260508030539 | 57 | 315 | 3.0 | 9.0 | 0.00 | 0.00 | 0.00 | 59 | 1013.4 |
| 20260508025519 | 56 | 315 | 4.0 | 12.0 | 0.00 | 0.00 | 0.00 | 59 | 1013.6 |
| 20260508024519 | 56 | 315 | 2.0 | 5.0 | 0.00 | 0.00 | 0.00 | 60 | 1013.3 |
| 20260508023519 | 56 | 315 | 2.0 | 6.0 | 0.00 | 0.00 | 0.00 | 59 | 1012.7 |
| 20260508022519 | 56 | 338 | 2.0 | 5.0 | 0.00 | 0.00 | 0.00 | 60 | 1012.9 |
| 20260508021519 | 56 | 338 | 2.0 | 5.0 | 0.00 | 0.00 | 0.00 | 61 | 1013.1 |
| 20260508020519 | 57 | 315 | 2.0 | 4.0 | 0.00 | 0.00 | 0.00 | 57 | 1013.2 |
| 20260508015519 | 59 | 315 | 2.0 | 6.0 | 0.00 | 0.00 | 0.00 | 54 | 1013.0 |
| 20260508014519 | 61 | 315 | 4.0 | 11.0 | 0.00 | 0.00 | 0.00 | 46 | 1013.9 |
| 20260508013519 | 62 | 315 | 3.0 | 10.0 | 0.00 | 0.00 | 0.00 | 43 | 1013.1 |
| 20260508012519 | 62 | 338 | 2.0 | 5.0 | 0.00 | 0.00 | 0.00 | 43 | 1012.9 |
| 20260508011519 | 62 | 315 | 2.0 | 7.0 | 0.00 | 0.00 | 0.00 | 42 | 1012.7 |
| 20260508010539 | 63 | 315 | 2.0 | 7.0 | 0.00 | 0.00 | 0.00 | 41 | 1012.3 |
| 20260508005519 | 63 | 315 | 2.0 | 5.0 | 0.00 | 0.00 | 0.00 | 40 | 1012.0 |
| 20260508004519 | 64 | 315 | 1.0 | 3.0 | 0.00 | 0.00 | 0.00 | 39 | 1012.1 |
| 20260508003519 | 63 | 315 | 1.0 | 5.0 | 0.00 | 0.00 | 0.00 | 40 | 1011.6 |
| 20260508002519 | 62 | 315 | 1.0 | 6.0 | 0.00 | 0.00 | 0.00 | 41 | 1011.2 |
| 20260508001519 | 63 | 293 | 3.0 | 6.0 | 0.00 | 0.00 | 0.00 | 39 | 1011.8 |
| 20260508000519 | 63 | 315 | 2.0 | 5.0 | 0.00 | 0.00 | 0.00 | 37 | 1012.1 |
| 20260507235519 | 64 | 315 | 2.0 | 6.0 | 0.00 | 0.00 | 0.00 | 36 | 1012.0 |
| 20260507234519 | 64 | 293 | 3.0 | 10.0 | 0.00 | 0.00 | 0.00 | 34 | 1012.1 |
| 20260507233539 | 65 | 315 | 3.0 | 8.0 | 0.00 | 0.00 | 0.00 | 32 | 1012.6 |
| 20260507232519 | 67 | 315 | 3.0 | 11.0 | 0.00 | 0.00 | 0.00 | 30 | 1012.8 |
| 20260507231520 | 67 | 315 | 3.0 | 11.0 | 0.00 | 0.00 | 0.00 | 30 | 1012.6 |
| 20260507230519 | 67 | 338 | 1.0 | 5.0 | 0.00 | 0.00 | 0.00 | 31 | 1012.5 |
| 20260507225519 | 68 | 315 | 2.0 | 5.0 | 0.00 | 0.00 | 0.00 | 28 | 1012.4 |
| 20260507224519 | 68 | 293 | 1.0 | 3.0 | 0.00 | 0.01 | 0.00 | 28 | 1012.5 |
| 20260507223518 | 68 | 315 | 1.0 | 2.0 | 0.00 | 0.01 | 0.00 | 28 | 1012.5 |
| 20260507222521 | 68 | 315 | 1.0 | 5.0 | 0.00 | 0.01 | 0.00 | 27 | 1012.5 |
| 20260507221518 | 68 | 315 | 2.0 | 4.0 | 0.00 | 0.01 | 0.00 | 26 | 1012.6 |
| 20260507220520 | 69 | 293 | 3.0 | 9.0 | 0.00 | 0.02 | 0.00 | 26 | 1012.8 |
| 20260507215519 | 70 | 315 | 2.0 | 6.0 | 0.00 | 0.02 | 0.00 | 26 | 1013.2 |
| 20260507214519 | 70 | 293 | 2.0 | 5.0 | 0.00 | 0.03 | 0.00 | 26 | 1013.3 |
| 20260507213518 | 69 | 293 | 2.0 | 8.0 | 0.00 | 0.03 | 0.00 | 25 | 1013.1 |
| 20260507212519 | 69 | 293 | 2.0 | 6.0 | 0.00 | 0.04 | 0.00 | 25 | 1013.3 |
| 20260507211518 | 70 | 315 | 2.0 | 9.0 | 0.00 | 0.04 | 0.00 | 26 | 1013.8 |
| 20260507210519 | 71 | 315 | 2.0 | 7.0 | 0.00 | 0.05 | 0.00 | 24 | 1014.5 |
| 20260507205518 | 71 | 293 | 2.0 | 6.0 | 0.00 | 0.06 | 0.00 | 24 | 1014.8 |
| 20260507204518 | 73 | 315 | 2.0 | 8.0 | 0.00 | 0.09 | 0.00 | 24 | 1014.9 |
| 20260507203519 | 72 | 315 | 1.0 | 4.0 | 0.00 | 0.12 | 0.00 | 25 | 1015.1 |
| 20260507202518 | 72 | 293 | 1.0 | 3.0 | 0.00 | 0.13 | 0.00 | 25 | 1015.3 |
| 20260507201518 | 71 | 315 | 2.0 | 6.0 | 0.00 | 0.16 | 0.00 | 25 | 1015.6 |
| 20260507200518 | 72 | 270 | 1.0 | 5.0 | 0.00 | 0.18 | 0.00 | 25 | 1015.8 |
| 20260507195518 | 72 | 315 | 3.0 | 11.0 | 0.00 | 0.20 | 0.00 | 23 | 1015.9 |
| 20260507194538 | 72 | 338 | 2.0 | 7.0 | 0.00 | 0.22 | 0.00 | 26 | 1016.1 |
| 20260507193518 | 72 | 338 | 1.0 | 4.0 | 0.00 | 0.24 | 0.00 | 24 | 1016.3 |
| 20260507192518 | 71 | 315 | 1.0 | 4.0 | 0.00 | 0.26 | 0.00 | 26 | 1016.1 |
| 20260507191518 | 70 | 315 | 2.0 | 5.0 | 0.00 | 0.29 | 0.00 | 25 | 1016.3 |
| 20260507190519 | 71 | 315 | 2.0 | 6.0 | 0.00 | 0.33 | 0.00 | 26 | 1016.5 |
| 20260507185518 | 73 | 315 | 1.0 | 4.0 | 0.00 | 0.38 | 0.00 | 25 | 1017.1 |
| 20260507184518 | 73 | 293 | 1.0 | 9.0 | 0.00 | 0.42 | 0.00 | 27 | 1017.1 |
| 20260507183518 | 74 | 315 | 2.0 | 7.0 | 0.00 | 0.46 | 0.00 | 25 | 1017.5 |
| 20260507182539 | 73 | 315 | 1.0 | 5.0 | 0.00 | 0.48 | 0.00 | 26 | 1017.7 |
| 20260507181540 | 71 | 135 | 2.0 | 4.0 | 0.00 | 0.51 | 0.00 | 29 | 1017.6 |
| 20260507180520 | 70 | 203 | 2.0 | 5.0 | 0.00 | 0.53 | 0.00 | 27 | 1018.0 |
| 20260507175540 | 69 | 135 | 1.0 | 7.0 | 0.00 | 0.55 | 0.00 | 33 | 1018.3 |
| 20260507174520 | 67 | 135 | 1.0 | 3.0 | 0.00 | 0.57 | 0.00 | 30 | 1017.8 |
| 20260507173541 | 66 | 203 | 1.0 | 4.0 | 0.00 | 0.60 | 0.00 | 29 | 1017.7 |
| 20260507172520 | 65 | 158 | 2.0 | 5.0 | 0.00 | 0.63 | 0.00 | 36 | 1017.8 |
| 20260507171520 | 65 | 203 | 2.0 | 7.0 | 0.00 | 0.66 | 0.00 | 33 | 1018.0 |
| 20260507170520 | 64 | 158 | 1.0 | 5.0 | 0.00 | 0.70 | 0.00 | 40 | 1018.0 |
| 20260507165520 | 62 | 135 | 2.0 | 4.0 | 0.00 | 0.73 | 0.00 | 39 | 1017.8 |
| 20260507164520 | 61 | 0.0 | 2.0 | 0.00 | 0.74 | 0.00 | 46 | 1018.1 | |
| 20260507163520 | 56 | 0.0 | 0.0 | 0.00 | 0.75 | 0.00 | 57 | 1017.5 | |
| 20260507162520 | 52 | 0.0 | 0.0 | 0.00 | 0.76 | 0.00 | 62 | 1016.8 | |
| 20260507161520 | 52 | 0.0 | 0.0 | 0.00 | 0.77 | 0.00 | 61 | 1016.6 | |
| 20260507160520 | 51 | 0.0 | 0.0 | 0.00 | 0.78 | 0.00 | 67 | 1016.8 | |
| 20260507155520 | 50 | 0.0 | 0.0 | 0.00 | 0.79 | 0.00 | 65 | 1016.9 | |
| 20260507154520 | 49 | 0.0 | 0.0 | 0.00 | 0.79 | 0.00 | 70 | 1016.6 | |
| 20260507153520 | 49 | 0.0 | 0.0 | 0.00 | 0.79 | 0.00 | 72 | 1017.1 | |
| 20260507152520 | 48 | 0.0 | 1.0 | 0.00 | 0.80 | 0.00 | 75 | 1016.8 | |
| 20260507151520 | 47 | 0.0 | 0.0 | 0.00 | 0.80 | 0.00 | 77 | 1016.9 | |
| 20260507150520 | 46 | 0.0 | 0.0 | 0.00 | 0.80 | 0.00 | 76 | 1017.0 | |
| 20260507145520 | 45 | 0.0 | 0.0 | 0.00 | 0.80 | 0.00 | 80 | 1016.6 | |
| 20260507144520 | 44 | 0.0 | 0.0 | 0.00 | 0.80 | 0.00 | 81 | 1016.6 | |
| 20260507143520 | 43 | 0.0 | 0.0 | 0.00 | 0.80 | 0.00 | 84 | 1016.6 | |
| 20260507142540 | 42 | 0.0 | 0.0 | 0.00 | 0.81 | 0.00 | 82 | 1016.0 | |
| 20260507141520 | 42 | 0.0 | 0.0 | 0.00 | 0.81 | 0.00 | 85 | 1016.0 | |
| 20260507140520 | 41 | 0.0 | 0.0 | 0.00 | 0.81 | 0.00 | 86 | 1016.1 | |
| 20260507135520 | 40 | 0.0 | 1.0 | 0.00 | 0.81 | 0.00 | 88 | 1016.0 | |
| 20260507134520 | 40 | 0.0 | 1.0 | 0.00 | 0.81 | 0.00 | 87 | 1016.2 | |
| 20260507133520 | 39 | 0.0 | 1.0 | 0.00 | 0.81 | 0.00 | 87 | 1016.0 | |
| 20260507132520 | 38 | 0.0 | 1.0 | 0.00 | 0.81 | 0.00 | 89 | 1015.5 | |
| 20260507131520 | 37 | 0.0 | 1.0 | 0.00 | 0.81 | 0.00 | 91 | 1015.3 | |
| 20260507130520 | 36 | 0.0 | 1.0 | 0.00 | 0.81 | 0.00 | 92 | 1015.4 | |
| 20260507125520 | 35 | 0.0 | 1.0 | 0.00 | 0.81 | 0.00 | 94 | 1014.9 | |
| 20260507124520 | 35 | 0.0 | 1.0 | 0.00 | 0.81 | 0.00 | 96 | 1014.9 | |
| 20260507123522 | 33 | 0.0 | 2.0 | 0.00 | 0.81 | 0.00 | 96 | 1014.5 | |
| 20260507122520 | 33 | 0.0 | 1.0 | 0.00 | 0.81 | 0.00 | 96 | 1014.3 | |
| 20260507121540 | 32 | 0.0 | 1.0 | 0.00 | 0.81 | 0.00 | 96 | 1014.4 | |
| 20260507120520 | 32 | 0.0 | 2.0 | 0.00 | 0.81 | 0.00 | 96 | 1014.2 | |
| 20260507115520 | 31 | 0.0 | 1.0 | 0.00 | 0.81 | 0.00 | 96 | 1014.3 | |
| 20260507114520 | 31 | 0.0 | 1.0 | 0.00 | 0.81 | 0.00 | 96 | 1014.4 | |
| 20260507113520 | 31 | 0.0 | 0.0 | 0.00 | 0.81 | 0.00 | 96 | 1014.3 | |
| 20260507112520 | 31 | 0.0 | 0.0 | 0.00 | 0.81 | 0.00 | 96 | 1014.3 | |
| 20260507111519 | 31 | 0.0 | 1.0 | 0.00 | 0.81 | 0.00 | 96 | 1014.3 | |
| 20260507110520 | 31 | 0.0 | 0.0 | 0.00 | 0.81 | 0.00 | 96 | 1014.2 | |
| 20260507105519 | 31 | 0.0 | 0.0 | 0.00 | 0.81 | 0.00 | 96 | 1013.7 | |
| 20260507104520 | 30 | 0.0 | 0.0 | 0.00 | 0.81 | 0.00 | 96 | 1013.8 | |
| 20260507103520 | 31 | 0.0 | 1.0 | 0.00 | 0.82 | 0.00 | 96 | 1014.0 | |
| 20260507102519 | 30 | 0.0 | 1.0 | 0.00 | 0.82 | 0.00 | 95 | 1013.4 | |
| 20260507101519 | 30 | 0.0 | 0.0 | 0.00 | 0.82 | 0.00 | 96 | 1013.7 | |
| 20260507100520 | 30 | 0.0 | 1.0 | 0.00 | 0.82 | 0.00 | 95 | 1013.8 | |
| 20260507095520 | 31 | 0.0 | 1.0 | 0.00 | 0.82 | 0.00 | 95 | 1013.9 | |
| 20260507094540 | 31 | 0.0 | 2.0 | 0.00 | 0.82 | 0.00 | 96 | 1013.6 | |
| 20260507093519 | 30 | 0.0 | 1.0 | 0.00 | 0.82 | 0.00 | 95 | 1014.1 | |
| 20260507092519 | 30 | 0.0 | 1.0 | 0.00 | 0.82 | 0.00 | 95 | 1014.1 | |
| 20260507091520 | 30 | 0.0 | 1.0 | 0.00 | 0.82 | 0.00 | 95 | 1014.2 | |
| 20260507090519 | 30 | 0.0 | 1.0 | 0.00 | 0.82 | 0.00 | 95 | 1013.9 | |
| 20260507085520 | 30 | 0.0 | 1.0 | 0.00 | 0.82 | 0.00 | 95 | 1013.9 |